Content
SEND FEEDBACK

Daily
Averages
Monthly
Summary
United States of America

COOPER LAKE, ALASKA


Home > North America > United States > Alaska
Elevation: 2338 feet     Latitude: 60 22N     Longitude: 149 40W

WEATHER
 
SELECT A DAY
Number of Records: 202,297;   Date Range: 1/1/95 - 10/21/14
 
SHARE

PRINT THIS DATA

[ ← Previous Day ]
WEATHER ALMANAC - JANUARY 31, 2013
[ Next Day → ]
[ °C ]   °F
Weather ElementAverageHighLow
Temperature32.3 °F37 °F (1:53 pm)26.1 °F (11:53 pm)
Dewpoint31.5 °F35.1 °F (1:53 pm)25 °F (11:53 pm)
Humidity97.1 %100 % (1:53 am)89 % (2:53 pm)
Barometer29.85 in29.94 in (11:53 pm)29.73 in (12:15 am)
Wind Speed2.5 mph6.9 mph (8:53 pm)
Weather ElementAverage
Visibility7.9 mi
Wind DirectionS (179.8 °)

Weather ElementTotal
Precipitation0.29 in
Heating Degree Days33.5 (Base 65)
Averaged from 47 records on January 31, 2013
WEATHER CONDITIONS BREAKOUT
WIND DIRECTION BREAKOUT
WEATHER BY HOUR - JANUARY 31, 2013
[ °C ]   °F
Local TimeTemperatureDewpointHumidityBarometerVisibilityWind DirectionWind SpeedGust SpeedPrecipitationEventsConditions
12:15 AM33.8 °F32.0 °F93 %29.73 in5.0 miCalm0.00 inOvercast
12:53 AM33.1 °F32.0 °F96 %29.73 in6.0 miCalm0.01 inOvercast
1:53 AM33.1 °F33.1 °F100 %29.74 in10.0 miCalmOvercast
2:07 AM33.8 °F33.8 °F100 %29.74 in10.0 miCalmOvercast
2:25 AM33.8 °F32.0 °F93 %29.74 in9.0 miCalmOvercast
3:53 AM33.1 °F32.0 °F96 %29.75 in3.0 miCalmOvercast
4:53 AM33.1 °F33.1 °F100 %29.75 in7.0 miCalm0.01 inRainLight Rain
5:53 AM33.1 °F33.1 °F100 %29.76 in10.0 miNNW (340°)4.6 mph0.02 inRainLight Rain
6:53 AM33.1 °F33.1 °F100 %29.77 in10.0 miNorth (350°)4.6 mph0.01 inOvercast
7:17 AM33.8 °F33.8 °F100 %29.77 in10.0 miNNW (340°)4.6 mphOvercast
7:51 AM33.8 °F33.8 °F100 %29.79 in10.0 miNorth (10°)3.5 mph0.01 inOvercast
7:53 AM33.1 °F33.1 °F100 %29.79 in10.0 miCalm0.01 inOvercast
8:32 AM33.8 °F33.8 °F100 %29.79 in10.0 miNNW (330°)4.6 mph0.01 inOvercast
8:51 AM33.8 °F33.8 °F100 %29.79 in10.0 miNNW (330°)3.5 mph0.01 inOvercast
8:53 AM34.0 °F33.1 °F96 %29.79 in10.0 miNNW (330°)3.5 mph0.01 inOvercast
9:30 AM33.8 °F33.8 °F100 %29.80 in10.0 miNorth (350°)3.5 mph0.01 inOvercast
9:45 AM33.8 °F33.8 °F100 %29.81 in10.0 miNorth (350°)4.6 mph0.01 inOvercast
9:53 AM34.0 °F33.1 °F96 %29.81 in10.0 miCalm0.01 inOvercast
10:53 AM34.0 °F34.0 °F100 %29.83 in10.0 miCalm0.02 inOvercast
11:53 AM35.1 °F34.0 °F96 %29.85 in10.0 miNNW (340°)3.5 mph0.02 inMostly Cloudy
12:15 PM35.6 °F33.8 °F93 %29.85 in10.0 miNorth (350°)4.6 mphOvercast
12:27 PM33.8 °F33.8 °F100 %29.85 in10.0 miCalm0.01 inOvercast
12:43 PM35.6 °F33.8 °F93 %29.86 in10.0 miNNW (330°)3.5 mph0.01 inOvercast
12:53 PM35.1 °F33.1 °F92 %29.86 in10.0 miCalm0.02 inOvercast
1:53 PM37.0 °F35.1 °F93 %29.87 in10.0 miCalm0.05 inOvercast
2:53 PM37.0 °F34.0 °F89 %29.88 in10.0 miNorth (360°)3.5 mph0.03 inOvercast
3:53 PM33.1 °F32.0 °F96 %29.88 in10.0 miNorth (350°)3.5 mphMostly Cloudy
4:53 PM33.1 °F32.0 °F96 %29.89 in10.0 miWest (270°)3.5 mphClear
5:20 PM30.2 °F30.2 °F100 %29.90 in1.5 miCalmClear
5:30 PM30.2 °F30.2 °F100 %29.90 in2.0 miCalmPartly Cloudy
5:53 PM30.0 °F28.9 °F96 %29.91 in2.5 miNNE (20°)4.6 mphPartly Cloudy
6:00 PM30.2 °F28.4 °F93 %29.91 in10.0 miCalmClear
6:12 PM28.4 °F28.4 °F100 %29.91 in1.8 miNNW (330°)3.5 mphPartly Cloudy
6:14 PM30.2 °F28.4 °F93 %29.91 in3.0 miNNW (330°)3.5 mphPartly Cloudy
6:49 PM28.4 °F28.4 °F100 %29.92 in1.5 miCalmOvercast
6:51 PM28.4 °F28.4 °F100 %29.92 in0.8 miCalmOvercast
7:15 PM28.4 °F28.4 °F100 %29.92 in0.8 miCalmOvercast
7:18 PM28.4 °F28.4 °F100 %29.92 in1.5 miCalmOvercast
7:21 PM30.2 °F28.4 °F93 %29.92 in4.0 miNNW (340°)3.5 mphOvercast
7:53 PM30.9 °F30.9 °F100 %29.92 in10.0 miNNW (340°)4.6 mphOvercast
8:08 PM32.0 °F30.2 °F93 %29.93 in10.0 miNNW (340°)4.6 mphOvercast
8:53 PM30.9 °F30.0 °F96 %29.93 in10.0 miNNW (330°)6.9 mphPartly Cloudy
9:24 PM30.2 °F30.2 °F100 %29.93 in10.0 miNNW (340°)6.9 mphMostly Cloudy
9:51 PM30.2 °F28.4 °F93 %29.93 in10.0 miNNW (330°)5.8 mphScattered Clouds
9:53 PM30.0 °F28.9 °F96 %29.93 in10.0 miNNW (330°)5.8 mphPartly Cloudy
10:53 PM30.9 °F30.0 °F96 %29.93 in10.0 miNNW (340°)3.5 mphClear
11:53 PM26.1 °F25.0 °F96 %29.94 in10.0 miNorth (350°)3.5 mphClear
Hourly data recorded from PAWD, located miles away from Cooper Lake, Alaska







STORIES FROM OUR PARTNERS